DateTimeUTC,F1_A11,F1_S11,BsB_S11,BsG_S11,BsR_S11,BbsB_S11,BbsG_S11,BbsR_S11,BaB_A11,BaG_A11,BaR_A11,Tu_S11,T_S11,Uu_S11,U_S11,P_S11,T1_A11
2021-06-14T17:00:00Z,00000200,20000000,,,,,,,0000.37,0000.06,0000.37,19.5,25.7,02.2,01.5,0669.7,31.1
2021-06-14T17:01:00Z,00000200,20000000,,,,,,,-000.37,0000.06,-000.18,19.5,25.7,02.2,01.5,0669.7,31.1
2021-06-14T17:02:00Z,00000200,20000000,,,,,,,0000.17,-000.12,-000.20,19.5,25.7,01.9,01.3,0669.7,31.1
2021-06-14T17:03:00Z,00000200,60000000,,,,,,,0000.19,0000.64,0000.96,19.5,25.7,01.9,01.3,0669.7,31.1
2021-06-14T17:04:00Z,00000200,40000000,0002.10,0000.62,0000.08,0000.37,0000.43,-000.02,0000.21,-000.13,-000.36,19.6,25.6,02.2,01.5,0670.6,31.0
2021-06-14T17:05:00Z,00000200,00000000,0001.40,0000.83,0000.30,0000.14,0000.36,-000.03,0000.29,-000.08,0000.18,19.6,25.5,02.3,01.6,0670.7,31.1
2021-06-14T17:06:00Z,00000200,00000000,0001.86,0001.01,0000.53,-000.28,0000.29,-000.03,-000.07,0000.38,0000.29,19.6,25.5,02.2,01.5,0670.7,31.0
2021-06-14T17:07:00Z,00000200,00000000,0001.37,0000.79,0000.40,0000.14,0000.39,0000.02,0000.64,0000.32,0000.18,19.6,25.5,02.3,01.6,0670.7,31.0
2021-06-14T17:08:00Z,00000200,00000000,0001.57,0000.69,0000.52,0000.86,0000.27,0000.37,0000.26,0000.23,0000.35,19.6,25.5,02.3,01.6,0670.7,31.1
2021-06-14T17:09:00Z,00000200,00000000,0001.12,0000.97,0000.31,0000.69,0000.28,0000.01,0000.38,0000.52,0000.09,19.6,25.5,02.3,01.6,0670.7,31.1
2021-06-14T17:10:00Z,00000200,00000000,0001.32,0001.08,0000.45,0000.18,0000.01,0000.15,0000.15,0000.06,0000.50,19.6,25.6,02.3,01.6,0670.7,31.0
2021-06-14T17:11:00Z,00000200,00000000,0001.71,0000.80,0000.27,-000.25,0000.30,-000.08,0000.34,0000.39,-000.18,19.6,25.5,02.3,01.6,0670.7,31.0
2021-06-14T17:12:00Z,00000200,00000000,0001.67,0000.86,0000.24,-000.06,0000.16,-000.29,0000.60,0000.40,0000.60,19.6,25.6,02.2,01.5,0670.7,31.0
2021-06-14T17:13:00Z,00000200,00000000,0001.42,0000.93,0000.50,0000.28,0000.13,0000.13,0000.16,0000.39,-000.01,19.6,25.6,02.3,01.6,0670.7,31.0
2021-06-14T17:14:00Z,00000200,00000000,0000.44,0000.84,0000.65,0000.72,0000.32,0000.07,0000.03,0000.22,0000.25,19.6,25.6,02.2,01.5,0670.7,31.0
2021-06-14T17:15:00Z,00000200,00000000,0001.05,0000.81,0000.65,0000.53,0000.51,0000.27,0000.18,-000.06,0000.25,19.6,25.6,02.2,01.5,0670.7,31.0
2021-06-14T17:16:00Z,00000200,00000000,0001.26,0000.94,0000.50,-000.10,0000.04,-000.12,0000.41,0000.28,0000.44,19.6,25.6,02.3,01.6,0670.7,31.0
2021-06-14T17:17:00Z,00000200,00000000,0001.09,0000.94,0000.16,0000.37,0000.40,-000.25,0000.53,0000.29,-000.01,19.6,25.5,02.3,01.6,0670.7,31.0
2021-06-14T17:18:00Z,00000200,00000000,0000.89,0000.74,0000.61,0000.10,0000.20,0000.23,0000.03,0000.32,0000.31,19.6,25.6,02.3,01.6,0670.7,31.0
2021-06-14T17:19:00Z,00000200,00000000,0001.14,0000.99,0000.45,0000.30,0000.25,0000.02,0000.38,-000.04,-000.14,19.7,25.6,02.3,01.6,0670.7,31.1
2021-06-14T17:20:00Z,00000200,00000000,0000.69,0000.82,0000.25,0000.23,0000.06,-000.01,0000.17,0000.50,0000.32,19.7,25.6,02.3,01.6,0670.7,31.0
2021-06-14T17:21:00Z,00000200,00000000,0001.68,0000.93,0000.36,0000.56,0000.31,-000.02,0000.26,0000.22,0000.03,19.7,25.6,02.3,01.6,0670.7,31.0
2021-06-14T17:22:00Z,00000200,00000000,0002.16,0000.75,0000.56,0000.20,0000.39,0000.28,0000.19,0000.14,0000.34,19.7,25.6,02.2,01.5,0670.7,31.0
2021-06-14T17:23:00Z,00000200,00000000,0001.47,0000.78,0000.43,0000.01,0000.13,0000.35,0000.04,0000.25,0000.20,19.7,25.6,02.3,01.6,0670.7,31.0
2021-06-14T17:24:00Z,00000200,00000000,0001.08,0001.04,0000.49,0000.06,0000.20,0000.21,0000.57,0000.50,0000.60,19.7,25.6,02.3,01.6,0670.7,31.1
2021-06-14T17:25:00Z,00000200,00000000,0001.23,0000.80,0000.45,0000.47,0000.24,0000.01,0000.25,-000.02,-000.37,19.7,25.6,02.3,01.6,0670.7,31.0
2021-06-14T17:26:00Z,00000200,00000000,0001.17,0000.88,0000.57,0000.19,0000.29,0000.09,0000.46,0000.83,0000.48,19.7,25.6,02.3,01.6,0670.7,31.1
2021-06-14T17:27:00Z,00000200,00000000,0001.99,0000.60,0000.41,-000.35,0000.16,0000.16,-000.04,-000.10,0000.16,19.7,25.6,02.3,01.6,0670.7,31.0
2021-06-14T17:28:00Z,00000200,00000000,0001.80,0001.04,0000.52,0000.18,0000.10,-000.11,0000.06,-000.10,0000.12,19.7,25.6,02.2,01.5,0670.7,31.1
2021-06-14T17:29:00Z,00000200,00000000,0000.71,0000.76,0000.19,0000.18,0000.29,-000.04,0000.56,0000.30,0000.12,19.7,25.6,02.3,01.6,0670.7,31.0
2021-06-14T17:30:00Z,00000200,00000000,0001.42,0000.75,0000.50,0000.09,-000.09,0000.01,-000.04,0000.14,0000.30,19.7,25.6,02.3,01.6,0670.7,31.0
2021-06-14T17:31:00Z,00000200,00000000,0002.00,0000.85,0000.21,-000.01,0000.37,-000.17,0000.36,0000.45,0000.51,19.7,25.6,02.2,01.5,0670.7,31.0
2021-06-14T17:32:00Z,00000200,00000000,0001.17,0000.57,0000.34,0000.09,0000.40,0000.20,0000.79,0000.72,0000.09,19.7,25.6,02.3,01.6,0670.8,31.1
2021-06-14T17:33:00Z,00000200,00000000,0001.36,0001.06,0000.37,0000.67,0000.20,0000.02,-000.39,-000.04,0000.17,19.7,25.6,02.3,01.6,0670.8,31.0
2021-06-14T17:34:00Z,00000200,00000000,0006.69,0006.75,0006.26,0000.89,0001.01,0000.72,0003.05,0002.85,0002.28,19.7,25.6,02.5,01.8,0670.8,31.1
2021-06-14T17:35:00Z,00000200,00000000,0002.12,0000.70,0000.75,0000.71,0000.57,-000.16,0000.18,-000.24,-000.12,19.7,25.6,02.4,01.7,0670.7,31.0
2021-06-14T17:36:00Z,00000200,00000000,0001.61,0001.04,0000.28,0000.35,0000.30,0000.15,0000.43,0000.23,0000.09,19.7,25.6,02.4,01.7,0670.8,31.1
2021-06-14T17:37:00Z,00000200,00000000,0001.66,0000.80,0000.61,0000.11,0000.22,-000.08,-000.13,-000.08,0000.12,19.7,25.6,02.3,01.6,0670.8,31.1
2021-06-14T17:38:00Z,00000200,00000000,0001.62,0000.69,0000.54,0000.57,0000.41,0000.11,0001.14,0001.41,0001.07,19.7,25.6,02.3,01.6,0670.7,31.1
2021-06-14T17:39:00Z,00000200,00000000,0000.97,0001.04,0000.47,0000.39,0000.25,0000.01,0000.16,0000.20,-000.13,19.7,25.6,02.4,01.6,0670.5,31.1
2021-06-14T17:40:00Z,00000200,00000000,0001.68,0000.82,0000.46,0000.51,0000.25,0000.15,0001.38,0001.33,0001.20,19.8,25.6,02.7,01.9,0670.5,31.1
2021-06-14T17:41:00Z,00000200,00000000,0001.38,0000.97,0000.71,0000.27,0000.18,0000.08,0000.93,0000.63,0000.32,19.8,25.7,03.0,02.1,0670.5,31.1
2021-06-14T17:42:00Z,00000200,00000000,0001.65,0001.05,0000.43,-000.23,0000.16,-000.14,0000.54,0000.47,0000.68,19.8,25.7,03.1,02.1,0670.5,31.1
2021-06-14T17:43:00Z,00000200,00000000,0001.62,0000.50,0000.34,0000.19,0000.15,0000.20,0000.25,0000.52,0000.41,19.8,25.7,03.1,02.2,0670.5,31.1
2021-06-14T17:43:51Z,00000200,,,,,,,,0000.25,0000.52,0000.41,19.8,25.7,03.1,02.2,0670.5,31.1
2021-06-14T17:43:51Z,00000200,,,,,,,,0000.25,0000.52,0000.41,,,,,,31.1
2021-06-14T17:44:00Z,,,,,,,,,,,,,,03.2,,,
2021-06-14T17:44:33Z,00000200,,,,,,,,0000.58,0001.37,0000.94,,,03.2,,,31.1
2021-06-14T17:44:42Z,00000200,,0002.45,0001.31,0000.08,-000.40,-000.03,-000.03,0000.58,0001.37,0000.94,,,03.2,,,31.1
2021-06-14T17:44:42Z,00000200,,0002.45,0001.31,0000.08,-000.40,-000.03,-000.03,0000.58,0001.37,0000.94,19.8,25.7,03.4,02.3,0670.5,31.1
2021-06-14T17:44:43Z,00000200,00000000,0002.45,0001.31,0000.08,-000.40,-000.03,-000.03,0000.58,0001.37,0000.94,19.8,25.7,03.4,02.3,0670.5,31.1
2021-06-14T17:45:00Z,00000200,00000000,0000.99,0000.82,0000.46,-000.38,0000.24,0000.36,0000.21,-000.24,0000.08,19.8,25.7,03.3,02.3,0670.5,31.1
2021-06-14T17:46:00Z,,,,,,,,,0000.25,0000.17,0000.51,,,,,,
2021-06-14T17:46:00Z,00000200,,,,,,,,0000.25,0000.17,0000.51,,,,,,31.1
2021-06-14T17:46:10Z,00000200,,,,,,,,0000.25,0000.17,0000.51,19.8,25.7,03.3,02.3,0670.5,31.1
2021-06-14T17:46:11Z,00000200,,0000.47,0000.97,0000.68,-000.05,0000.26,0000.18,0000.25,0000.17,0000.51,19.8,25.7,03.3,02.3,0670.5,31.1
2021-06-14T17:46:12Z,00000200,00000000,0000.47,0000.97,0000.68,-000.05,0000.26,0000.18,0000.25,0000.17,0000.51,19.8,25.7,03.3,02.3,0670.5,31.1
2021-06-14T17:47:00Z,00000200,00000000,0001.34,0000.97,0000.47,-000.30,0000.37,0000.13,0000.28,0000.58,-000.13,19.8,25.7,03.2,02.2,0670.5,31.1
2021-06-14T17:48:00Z,00000200,00000000,0001.54,0000.61,0000.01,0000.44,0000.33,-000.22,0000.25,-000.10,0000.55,19.8,25.7,03.3,02.3,0670.5,31.1
2021-06-14T17:49:00Z,00000200,00000000,0001.65,0000.94,0000.52,-000.02,0000.41,0000.30,0000.22,0000.56,-000.02,19.8,25.7,03.2,02.2,0670.5,31.1
2021-06-14T17:50:00Z,00000200,00000000,0001.73,0000.78,0000.32,-000.07,0000.39,0000.15,0000.18,-000.09,-000.07,19.8,25.7,03.2,02.3,0670.5,31.1
2021-06-14T17:51:00Z,00000200,00000000,0001.57,0000.54,0000.34,0000.06,0000.34,0000.04,0000.61,0000.57,0000.83,19.8,25.7,03.2,02.2,0670.5,31.1
2021-06-14T17:52:00Z,00000200,00000000,0001.17,0000.83,0000.42,-000.35,0000.33,-000.14,0000.09,0000.10,-000.22,19.8,25.7,03.2,02.2,0670.5,31.1
2021-06-14T17:53:00Z,00000200,00000000,0001.47,0001.09,0000.21,0000.04,0000.27,-000.07,0000.65,0000.61,0001.03,19.8,25.7,03.3,02.3,0670.5,31.1
2021-06-14T17:54:00Z,00000200,00000000,0000.98,0000.72,0000.07,-000.17,0000.09,-000.12,0000.18,0000.33,-000.18,19.9,25.7,03.3,02.3,0670.5,31.1
2021-06-14T17:55:00Z,00000200,00000000,0001.69,0000.79,0000.48,0000.05,0000.29,0000.11,-000.11,0000.08,0000.21,19.9,25.7,03.2,02.2,0670.5,31.1
2021-06-14T17:56:00Z,00000200,00000000,0001.44,0000.58,0000.41,-000.25,0000.14,0000.12,0000.64,0000.48,0000.35,19.9,25.8,03.2,02.2,0670.5,31.1
2021-06-14T17:57:00Z,00000200,40000000,,,,,,,-000.41,-000.54,-000.42,19.9,25.8,03.0,02.1,0670.5,31.1
2021-06-14T17:58:00Z,00000200,60000000,,,,,,,0000.22,0000.19,-000.07,19.8,25.8,03.0,02.1,0669.6,31.1
2021-06-14T17:59:00Z,00000200,20000000,,,,,,,0000.17,0000.41,0000.32,19.8,25.9,03.1,02.1,0669.6,31.1
